Back to Top

Language: 

My Weather Underground Personal Weather Station Historical Data with Graphs...

Delerius Weather Station Historical Data
Daily Summary for July 24, 2017 Units:  English    Metric   Both
« Previous Day
Next Day »
Daily Weekly Monthly Yearly Custom
  High: Low: Average:
Temperature: 67.8 °F 55.6 °F 60 °F
Dew Point: 56.9 °F 52.0 °F 54.6 °F
Humidity: 95 % 67 % 83 %
Wind Speed: 11.0 mph 1.0 mph 7 mph
Wind Gust: 24.0 mph - -
Wind:- - West
Pressure: 30.06 in 29.83 in -
Precipitation: 0.01 in    
Historical Graphs
 
 
Tabular Data for July 24, 2017
Time Temperature Dew Point Pressure Wind Wind Speed Wind Gust Humidity Rainfall Rate (Hourly) solar Conditions
00:01 58.3 °F 56.9 °F 29.83 in NNW 8.0 mph 15.0 mph 95 % 0.02 in 0 W/m2
00:06 58.3 °F 56.9 °F 29.84 in NNW 8.0 mph 14.0 mph 95 % 0.02 in 0 W/m2
00:11 58.3 °F 56.9 °F 29.84 in NNW 8.0 mph 14.0 mph 95 % 0.02 in 0 W/m2
00:16 58.1 °F 56.7 °F 29.84 in NNW 7.0 mph 16.0 mph 95 % 0.02 in 0 W/m2
00:21 58.1 °F 56.7 °F 29.84 in NNW 7.0 mph 16.0 mph 95 % 0.02 in 0 W/m2
00:26 57.9 °F 56.5 °F 29.84 in NNW 7.0 mph 19.0 mph 95 % 0.02 in 0 W/m2
00:31 57.9 °F 56.5 °F 29.84 in NNW 8.0 mph 19.0 mph 95 % 0.02 in 0 W/m2
00:36 57.9 °F 56.5 °F 29.84 in NNW 9.0 mph 19.0 mph 95 % 0.02 in 0 W/m2
00:41 57.7 °F 56.3 °F 29.84 in NNW 10.0 mph 19.0 mph 95 % 0.02 in 0 W/m2
00:46 57.7 °F 56.3 °F 29.84 in NNW 8.0 mph 23.0 mph 95 % 0.02 in 0 W/m2
00:51 57.7 °F 56.3 °F 29.85 in NNW 7.0 mph 23.0 mph 95 % 0.02 in 0 W/m2
00:56 57.7 °F 56.3 °F 29.85 in NNW 8.0 mph 20.0 mph 95 % 0.01 in 0 W/m2
01:01 57.6 °F 56.1 °F 29.85 in NNW 9.0 mph 20.0 mph 95 % 0.01 in 0 W/m2
01:06 57.6 °F 56.1 °F 29.85 in NNW 8.0 mph 19.0 mph 95 % 0.01 in 0 W/m2
01:12 57.6 °F 56.1 °F 29.85 in NNW 8.0 mph 16.0 mph 95 % 0.01 in 0 W/m2
01:16 57.6 °F 55.8 °F 29.85 in NNW 9.0 mph 18.0 mph 94 % 0.01 in 0 W/m2
01:22 57.6 °F 55.8 °F 29.86 in NNW 10.0 mph 18.0 mph 94 % 0.01 in 0 W/m2
01:27 57.6 °F 55.8 °F 29.86 in NNW 9.0 mph 21.0 mph 94 % 0.00 in 0 W/m2
01:32 57.6 °F 55.8 °F 29.86 in North 9.0 mph 21.0 mph 94 % 0.00 in 0 W/m2
01:37 57.6 °F 55.8 °F 29.86 in NNW 8.0 mph 18.0 mph 94 % 0.00 in 0 W/m2
01:42 57.6 °F 55.8 °F 29.86 in NNW 8.0 mph 16.0 mph 94 % 0.00 in 0 W/m2
01:47 57.6 °F 55.8 °F 29.86 in NNW 8.0 mph 16.0 mph 94 % 0.00 in 0 W/m2
01:52 57.6 °F 55.8 °F 29.86 in NNW 8.0 mph 18.0 mph 94 % 0.00 in 0 W/m2
01:57 57.6 °F 55.8 °F 29.86 in NNW 7.0 mph 18.0 mph 94 % 0.00 in 0 W/m2
02:02 57.6 °F 55.6 °F 29.86 in North 8.0 mph 21.0 mph 93 % 0.00 in 0 W/m2
02:07 57.6 °F 55.6 °F 29.86 in NNW 10.0 mph 21.0 mph 93 % 0.00 in 0 W/m2
02:12 57.6 °F 55.6 °F 29.86 in NNW 10.0 mph 18.0 mph 93 % 0.00 in 0 W/m2
02:17 57.6 °F 55.6 °F 29.86 in North 8.0 mph 16.0 mph 93 % 0.00 in 0 W/m2
02:22 57.6 °F 55.6 °F 29.87 in North 8.0 mph 15.0 mph 93 % 0.00 in 0 W/m2
02:27 57.7 °F 55.7 °F 29.87 in North 8.0 mph 18.0 mph 93 % 0.00 in 0 W/m2
02:32 57.7 °F 55.7 °F 29.87 in North 7.0 mph 18.0 mph 93 % 0.00 in 0 W/m2
02:37 57.7 °F 55.7 °F 29.87 in North 7.0 mph 16.0 mph 93 % 0.00 in 0 W/m2
02:42 57.7 °F 55.7 °F 29.87 in NNW 8.0 mph 16.0 mph 93 % 0.00 in 0 W/m2
02:47 57.9 °F 55.9 °F 29.87 in NNW 7.0 mph 18.0 mph 93 % 0.00 in 0 W/m2
02:52 57.9 °F 55.9 °F 29.87 in NNW 7.0 mph 18.0 mph 93 % 0.00 in 0 W/m2
02:57 57.9 °F 55.9 °F 29.87 in NNW 7.0 mph 13.0 mph 93 % 0.00 in 0 W/m2
03:02 57.9 °F 55.9 °F 29.87 in NNW 7.0 mph 12.0 mph 93 % 0.00 in 0 W/m2
03:07 57.9 °F 55.6 °F 29.87 in NNW 6.0 mph 13.0 mph 92 % 0.00 in 0 W/m2
03:12 57.9 °F 55.6 °F 29.88 in NNW 6.0 mph 13.0 mph 92 % 0.00 in 0 W/m2
03:17 57.9 °F 55.6 °F 29.88 in NNW 8.0 mph 15.0 mph 92 % 0.00 in 0 W/m2
03:22 57.9 °F 55.6 °F 29.88 in NNW 7.0 mph 15.0 mph 92 % 0.00 in 0 W/m2
03:27 57.9 °F 55.6 °F 29.88 in NW 5.0 mph 15.0 mph 92 % 0.00 in 0 W/m2
03:32 57.9 °F 55.6 °F 29.88 in NNW 5.0 mph 13.0 mph 92 % 0.00 in 0 W/m2
03:37 57.9 °F 55.6 °F 29.88 in NNW 6.0 mph 13.0 mph 92 % 0.00 in 0 W/m2
03:42 57.9 °F 55.6 °F 29.88 in NNW 6.0 mph 13.0 mph 92 % 0.00 in 0 W/m2
03:47 57.9 °F 55.6 °F 29.88 in NNW 7.0 mph 15.0 mph 92 % 0.00 in 0 W/m2
03:52 57.9 °F 55.6 °F 29.88 in NNW 8.0 mph 15.0 mph 92 % 0.00 in 0 W/m2
03:57 57.9 °F 55.3 °F 29.88 in NNW 8.0 mph 14.0 mph 91 % 0.00 in 0 W/m2
04:02 57.9 °F 55.3 °F 29.88 in NNW 7.0 mph 15.0 mph 91 % 0.00 in 0 W/m2
04:07 57.9 °F 55.3 °F 29.88 in NNW 6.0 mph 15.0 mph 91 % 0.00 in 0 W/m2
04:12 57.9 °F 55.3 °F 29.88 in NNW 7.0 mph 16.0 mph 91 % 0.00 in 0 W/m2
04:17 57.9 °F 55.3 °F 29.89 in NNW 8.0 mph 16.0 mph 91 % 0.00 in 0 W/m2
04:22 57.9 °F 55.3 °F 29.89 in NNW 7.0 mph 14.0 mph 91 % 0.00 in 0 W/m2
04:27 57.9 °F 55.3 °F 29.89 in NNW 7.0 mph 14.0 mph 91 % 0.00 in 0 W/m2
04:32 57.9 °F 55.3 °F 29.89 in NNW 7.0 mph 14.0 mph 91 % 0.00 in 0 W/m2
04:37 57.9 °F 55.3 °F 29.89 in NW 6.0 mph 16.0 mph 91 % 0.00 in 0 W/m2
04:42 57.9 °F 55.0 °F 29.89 in NW 7.0 mph 16.0 mph 90 % 0.00 in 0 W/m2
04:47 57.9 °F 55.0 °F 29.89 in NW 8.0 mph 20.0 mph 90 % 0.00 in 0 W/m2
04:52 57.9 °F 55.0 °F 29.89 in NNW 8.0 mph 20.0 mph 90 % 0.00 in 0 W/m2
04:57 57.9 °F 55.0 °F 29.89 in NNW 7.0 mph 14.0 mph 90 % 0.00 in 0 W/m2
05:02 57.7 °F 54.8 °F 29.89 in NNW 7.0 mph 12.0 mph 90 % 0.00 in 0 W/m2
05:07 57.7 °F 54.8 °F 29.90 in NW 7.0 mph 15.0 mph 90 % 0.00 in 0 W/m2
05:12 57.7 °F 54.8 °F 29.90 in NW 7.0 mph 15.0 mph 90 % 0.00 in 0 W/m2
05:17 57.7 °F 54.8 °F 29.90 in NW 6.0 mph 12.0 mph 90 % 0.00 in 0 W/m2
05:22 57.7 °F 54.8 °F 29.90 in NW 5.0 mph 11.0 mph 90 % 0.00 in 0 W/m2
05:27 57.7 °F 54.5 °F 29.90 in NW 7.0 mph 14.0 mph 89 % 0.00 in 0 W/m2
05:32 57.6 °F 54.3 °F 29.91 in NNW 7.0 mph 14.0 mph 89 % 0.00 in 0 W/m2
05:37 57.6 °F 54.3 °F 29.91 in NW 6.0 mph 11.0 mph 89 % 0.00 in 0 W/m2
05:42 57.6 °F 54.3 °F 29.91 in NW 6.0 mph 15.0 mph 89 % 0.00 in 0 W/m2
05:47 57.6 °F 54.3 °F 29.91 in NW 6.0 mph 15.0 mph 89 % 0.00 in 0 W/m2
05:52 57.6 °F 54.3 °F 29.91 in NW 5.0 mph 11.0 mph 89 % 0.00 in 0 W/m2
05:57 57.6 °F 54.6 °F 29.90 in NW 5.0 mph 9.0 mph 90 % 0.00 in 0 W/m2
06:02 57.6 °F 54.6 °F 29.91 in NW 4.0 mph 12.0 mph 90 % 0.00 in 0 W/m2
06:07 57.6 °F 54.3 °F 29.91 in NW 6.0 mph 13.0 mph 89 % 0.00 in 0 W/m2
06:12 57.4 °F 54.2 °F 29.91 in NNW 8.0 mph 18.0 mph 89 % 0.00 in 0 W/m2
06:17 57.4 °F 54.2 °F 29.91 in NNW 8.0 mph 18.0 mph 89 % 0.00 in 7 W/m2
06:22 57.4 °F 53.9 °F 29.91 in NNW 7.0 mph 15.0 mph 88 % 0.00 in 9 W/m2
06:27 57.4 °F 53.9 °F 29.91 in NNW 7.0 mph 15.0 mph 88 % 0.00 in 7 W/m2
06:33 57.4 °F 53.9 °F 29.91 in NNW 6.0 mph 13.0 mph 88 % 0.00 in 5 W/m2
06:38 57.4 °F 53.9 °F 29.91 in NNW 6.0 mph 14.0 mph 88 % 0.00 in 7 W/m2
06:43 57.4 °F 53.9 °F 29.92 in NNW 7.0 mph 15.0 mph 88 % 0.00 in 7 W/m2
06:53 57.4 °F 53.9 °F 29.92 in NNW 9.0 mph 19.0 mph 88 % 0.00 in 11 W/m2
06:58 57.4 °F 53.9 °F 29.92 in NNW 8.0 mph 19.0 mph 88 % 0.00 in 7 W/m2
07:03 57.4 °F 53.9 °F 29.92 in NNW 7.0 mph 14.0 mph 88 % 0.00 in 7 W/m2
07:08 57.4 °F 53.9 °F 29.92 in NNW 7.0 mph 16.0 mph 88 % 0.00 in 7 W/m2
07:13 57.4 °F 53.9 °F 29.92 in NW 8.0 mph 16.0 mph 88 % 0.00 in 9 W/m2
07:18 57.4 °F 53.9 °F 29.92 in NW 9.0 mph 16.0 mph 88 % 0.00 in 12 W/m2
07:23 57.4 °F 54.2 °F 29.93 in NNW 9.0 mph 20.0 mph 89 % 0.00 in 18 W/m2
07:28 57.4 °F 53.9 °F 29.93 in NNW 9.0 mph 23.0 mph 88 % 0.00 in 16 W/m2
07:33 57.4 °F 53.9 °F 29.93 in NNW 9.0 mph 23.0 mph 88 % 0.00 in 12 W/m2
07:38 57.4 °F 53.9 °F 29.93 in NNW 7.0 mph 12.0 mph 88 % 0.00 in 14 W/m2
07:43 57.4 °F 53.9 °F 29.93 in NNW 6.0 mph 12.0 mph 88 % 0.00 in 16 W/m2
07:48 57.4 °F 53.9 °F 29.93 in NNW 7.0 mph 18.0 mph 88 % 0.00 in 14 W/m2
07:53 57.4 °F 53.9 °F 29.93 in NNW 8.0 mph 18.0 mph 88 % 0.00 in 16 W/m2
07:58 57.4 °F 53.9 °F 29.94 in NNW 8.0 mph 16.0 mph 88 % 0.00 in 18 W/m2
08:03 57.4 °F 53.9 °F 29.94 in NNW 8.0 mph 15.0 mph 88 % 0.00 in 19 W/m2
08:08 57.4 °F 54.2 °F 29.94 in NNW 7.0 mph 15.0 mph 89 % 0.00 in 30 W/m2
08:13 57.4 °F 54.2 °F 29.94 in North 5.0 mph 12.0 mph 89 % 0.00 in 26 W/m2
08:18 57.4 °F 54.2 °F 29.94 in NNW 5.0 mph 11.0 mph 89 % 0.00 in 26 W/m2
08:23 57.4 °F 54.2 °F 29.95 in North 6.0 mph 11.0 mph 89 % 0.00 in 30 W/m2
08:28 57.2 °F 54.3 °F 29.95 in North 6.0 mph 12.0 mph 90 % 0.00 in 26 W/m2
08:33 57.0 °F 54.1 °F 29.95 in North 7.0 mph 16.0 mph 90 % 0.00 in 25 W/m2
08:39 57.0 °F 54.1 °F 29.95 in NNW 8.0 mph 21.0 mph 90 % 0.00 in 23 W/m2
08:44 57.0 °F 54.1 °F 29.95 in NNW 9.0 mph 21.0 mph 90 % 0.00 in 42 W/m2
08:49 57.0 °F 54.1 °F 29.95 in NNW 9.0 mph 16.0 mph 90 % 0.00 in 72 W/m2
08:54 57.0 °F 54.1 °F 29.95 in NNW 8.0 mph 15.0 mph 90 % 0.00 in 130 W/m2
08:59 57.0 °F 53.8 °F 29.96 in NNW 8.0 mph 20.0 mph 89 % 0.00 in 84 W/m2
09:04 57.2 °F 53.7 °F 29.96 in NNW 8.0 mph 20.0 mph 88 % 0.00 in 98 W/m2
09:09 57.4 °F 53.9 °F 29.96 in NNW 9.0 mph 19.0 mph 88 % 0.00 in 116 W/m2
09:14 57.4 °F 53.5 °F 29.96 in NNW 11.0 mph 20.0 mph 87 % 0.00 in 130 W/m2
09:19 57.6 °F 53.4 °F 29.96 in NNW 11.0 mph 20.0 mph 86 % 0.00 in 100 W/m2
09:24 57.6 °F 53.4 °F 29.96 in NNW 10.0 mph 20.0 mph 86 % 0.00 in 153 W/m2
09:29 57.7 °F 53.6 °F 29.97 in NNW 10.0 mph 20.0 mph 86 % 0.00 in 248 W/m2
09:34 58.1 °F 53.6 °F 29.97 in NNW 10.0 mph 20.0 mph 85 % 0.00 in 197 W/m2
09:39 58.5 °F 54.0 °F 29.97 in NNW 8.0 mph 18.0 mph 85 % 0.00 in 176 W/m2
09:44 58.5 °F 53.6 °F 29.97 in NNW 8.0 mph 19.0 mph 84 % 0.00 in 195 W/m2
09:49 58.6 °F 53.8 °F 29.97 in NNW 10.0 mph 22.0 mph 84 % 0.00 in 178 W/m2
09:54 58.6 °F 53.8 °F 29.97 in NNW 9.0 mph 22.0 mph 84 % 0.00 in 207 W/m2
09:59 58.6 °F 53.8 °F 29.97 in NNW 9.0 mph 21.0 mph 84 % 0.00 in 167 W/m2
10:04 58.5 °F 53.6 °F 29.97 in NNW 10.0 mph 23.0 mph 84 % 0.00 in 227 W/m2
10:09 58.6 °F 54.1 °F 29.97 in NNW 9.0 mph 23.0 mph 85 % 0.00 in 209 W/m2
10:14 58.8 °F 54.0 °F 29.97 in NNW 8.0 mph 16.0 mph 84 % 0.00 in 179 W/m2
10:19 58.8 °F 54.0 °F 29.98 in NNW 7.0 mph 16.0 mph 84 % 0.00 in 67 W/m2
10:20 58.8 °F 54.0 °F 29.98 in NNW 8.0 mph 16.0 mph 84 % 0.00 in 63 W/m2
10:25 58.6 °F 53.8 °F 29.98 in NNW 7.0 mph 16.0 mph 84 % 0.00 in 63 W/m2
10:30 58.1 °F 53.6 °F 29.98 in North 9.0 mph 22.0 mph 85 % 0.00 in 69 W/m2
10:35 57.7 °F 53.6 °F 29.98 in North 10.0 mph 22.0 mph 86 % 0.00 in 72 W/m2
10:40 57.6 °F 53.7 °F 29.99 in North 9.0 mph 16.0 mph 87 % 0.00 in 97 W/m2
10:45 57.4 °F 53.5 °F 29.98 in North 10.0 mph 20.0 mph 87 % 0.00 in 98 W/m2
10:50 57.2 °F 53.4 °F 29.98 in North 9.0 mph 20.0 mph 87 % 0.00 in 137 W/m2
10:55 57.0 °F 53.2 °F 29.98 in North 8.0 mph 16.0 mph 87 % 0.00 in 167 W/m2
11:00 57.4 °F 53.5 °F 29.98 in NNW 8.0 mph 16.0 mph 87 % 0.00 in 153 W/m2
11:05 57.4 °F 53.5 °F 29.98 in North 8.0 mph 15.0 mph 87 % 0.00 in 125 W/m2
11:10 57.4 °F 53.5 °F 29.99 in NNW 9.0 mph 15.0 mph 87 % 0.00 in 134 W/m2
11:15 57.4 °F 53.5 °F 29.99 in NNW 9.0 mph 19.0 mph 87 % 0.00 in 181 W/m2
11:20 57.6 °F 53.7 °F 29.99 in NNW 10.0 mph 19.0 mph 87 % 0.00 in 232 W/m2
11:21 57.6 °F 53.7 °F 29.99 in NNW 9.0 mph 19.0 mph 87 % 0.00 in 225 W/m2
11:26 57.9 °F 53.8 °F 29.99 in NNW 10.0 mph 18.0 mph 86 % 0.00 in 176 W/m2
11:31 57.9 °F 53.4 °F 29.99 in NNW 9.0 mph 16.0 mph 85 % 0.00 in 186 W/m2
11:36 58.1 °F 53.6 °F 29.99 in NNW 9.0 mph 16.0 mph 85 % 0.00 in 221 W/m2
11:41 58.3 °F 53.5 °F 29.99 in NNW 8.0 mph 15.0 mph 84 % 0.00 in 209 W/m2
11:46 58.5 °F 53.6 °F 29.99 in NNW 9.0 mph 18.0 mph 84 % 0.00 in 172 W/m2
11:51 58.6 °F 53.8 °F 29.99 in NNW 9.0 mph 18.0 mph 84 % 0.00 in 171 W/m2
11:56 58.6 °F 53.8 °F 29.99 in NNW 9.0 mph 20.0 mph 84 % 0.00 in 128 W/m2
12:01 58.6 °F 53.8 °F 29.99 in NNW 9.0 mph 20.0 mph 84 % 0.00 in 123 W/m2
12:03 58.6 °F 53.8 °F 29.99 in NNW 9.0 mph 20.0 mph 84 % 0.00 in 141 W/m2
12:07 58.6 °F 53.8 °F 29.99 in NNW 9.0 mph 19.0 mph 84 % 0.00 in 162 W/m2
12:12 58.6 °F 54.1 °F 29.99 in NNW 9.0 mph 19.0 mph 85 % 0.00 in 146 W/m2
12:17 58.5 °F 53.6 °F 29.99 in North 9.0 mph 14.0 mph 84 % 0.00 in 209 W/m2
12:22 58.6 °F 53.8 °F 29.99 in North 8.0 mph 14.0 mph 84 % 0.00 in 367 W/m2
12:27 59.2 °F 54.3 °F 29.99 in North 8.0 mph 14.0 mph 84 % 0.00 in 322 W/m2
12:32 59.7 °F 54.5 °F 29.99 in NNW 9.0 mph 18.0 mph 83 % 0.00 in 338 W/m2
12:37 60.3 °F 54.7 °F 29.99 in NNW 9.0 mph 18.0 mph 82 % 0.00 in 334 W/m2
12:42 60.6 °F 54.8 °F 29.99 in NNW 8.0 mph 16.0 mph 81 % 0.00 in 332 W/m2
12:47 60.8 °F 54.2 °F 29.99 in NW 9.0 mph 16.0 mph 79 % 0.00 in 417 W/m2
12:52 61.2 °F 54.9 °F 29.99 in NNW 9.0 mph 16.0 mph 80 % 0.00 in 970 W/m2
12:57 62.2 °F 55.6 °F 29.99 in NNW 8.0 mph 16.0 mph 79 % 0.00 in 677 W/m2
13:02 63.1 °F 55.4 °F 29.99 in NNW 10.0 mph 21.0 mph 76 % 0.00 in 976 W/m2
13:07 63.7 °F 54.9 °F 29.99 in NNW 11.0 mph 22.0 mph 73 % 0.00 in 367 W/m2
13:12 63.9 °F 55.4 °F 29.99 in NNW 10.0 mph 23.0 mph 74 % 0.00 in 1007 W/m2
13:17 64.2 °F 55.4 °F 29.99 in NNW 11.0 mph 24.0 mph 73 % 0.00 in 1174 W/m2
13:22 64.2 °F 55.0 °F 29.99 in NNW 10.0 mph 24.0 mph 72 % 0.00 in 1097 W/m2
13:27 64.4 °F 54.8 °F 30.00 in NNW 9.0 mph 19.0 mph 71 % 0.00 in 441 W/m2
13:32 64.0 °F 54.4 °F 29.99 in NNW 10.0 mph 18.0 mph 71 % 0.00 in 397 W/m2
13:37 63.7 °F 54.1 °F 30.00 in NNW 10.0 mph 22.0 mph 71 % 0.00 in 381 W/m2
13:42 63.3 °F 54.1 °F 30.00 in NNW 10.0 mph 22.0 mph 72 % 0.00 in 315 W/m2
13:47 63.0 °F 53.8 °F 30.00 in NNW 10.0 mph 16.0 mph 72 % 0.00 in 297 W/m2
13:52 62.8 °F 53.6 °F 30.00 in NNW 9.0 mph 16.0 mph 72 % 0.00 in 476 W/m2
13:57 63.0 °F 54.2 °F 30.00 in North 9.0 mph 16.0 mph 73 % 0.00 in 1030 W/m2
14:02 63.3 °F 54.5 °F 30.00 in North 8.0 mph 16.0 mph 73 % 0.00 in 195 W/m2
14:08 63.3 °F 54.5 °F 30.00 in North 7.0 mph 19.0 mph 73 % 0.00 in 237 W/m2
14:13 63.1 °F 54.0 °F 30.00 in North 8.0 mph 19.0 mph 72 % 0.00 in 325 W/m2
14:18 63.1 °F 54.7 °F 30.00 in NNW 8.0 mph 18.0 mph 74 % 0.00 in 415 W/m2
14:23 64.0 °F 55.2 °F 30.00 in NNW 7.0 mph 15.0 mph 73 % 0.00 in 916 W/m2
14:28 64.6 °F 54.6 °F 30.00 in NNW 9.0 mph 16.0 mph 70 % 0.00 in 424 W/m2
14:33 64.8 °F 54.7 °F 30.00 in NNW 10.0 mph 18.0 mph 70 % 0.00 in 513 W/m2
14:34 64.8 °F 54.7 °F 30.00 in NNW 10.0 mph 18.0 mph 70 % 0.00 in 513 W/m2
14:39 64.9 °F 55.3 °F 30.00 in North 9.0 mph 16.0 mph 71 % 0.00 in 573 W/m2
14:44 65.3 °F 54.9 °F 30.00 in North 9.0 mph 15.0 mph 69 % 0.00 in 492 W/m2
14:49 65.3 °F 54.9 °F 30.01 in North 9.0 mph 16.0 mph 69 % 0.00 in 499 W/m2
14:54 65.5 °F 55.0 °F 30.01 in NNW 8.0 mph 16.0 mph 69 % 0.00 in 350 W/m2
14:59 65.1 °F 54.7 °F 30.01 in NNW 8.0 mph 15.0 mph 69 % 0.00 in 352 W/m2
15:04 65.1 °F 55.5 °F 30.01 in NNW 7.0 mph 15.0 mph 71 % 0.00 in 251 W/m2
15:09 64.9 °F 54.5 °F 30.01 in North 6.0 mph 13.0 mph 69 % 0.00 in 255 W/m2
15:14 64.4 °F 54.8 °F 30.01 in North 7.0 mph 16.0 mph 71 % 0.00 in 285 W/m2
15:19 64.2 °F 54.6 °F 30.01 in North 8.0 mph 16.0 mph 71 % 0.00 in 420 W/m2
15:20 64.2 °F 54.6 °F 30.01 in North 7.0 mph 14.0 mph 71 % 0.00 in 445 W/m2
15:25 64.6 °F 55.7 °F 30.01 in North 6.0 mph 14.0 mph 73 % 0.00 in 480 W/m2
15:30 64.6 °F 55.7 °F 30.01 in North 6.0 mph 13.0 mph 73 % 0.00 in 612 W/m2
15:35 65.1 °F 55.9 °F 30.01 in North 7.0 mph 13.0 mph 72 % 0.00 in 976 W/m2
15:40 65.8 °F 55.8 °F 30.01 in North 7.0 mph 14.0 mph 70 % 0.00 in 905 W/m2
15:45 66.6 °F 56.9 °F 30.00 in North 7.0 mph 15.0 mph 71 % 0.00 in 882 W/m2
15:50 67.3 °F 56.8 °F 30.00 in NNW 7.0 mph 15.0 mph 69 % 0.00 in 1025 W/m2
15:55 67.8 °F 56.5 °F 30.00 in North 7.0 mph 14.0 mph 67 % 0.00 in 1025 W/m2
16:00 67.5 °F 56.1 °F 30.00 in NNE 7.0 mph 14.0 mph 67 % 0.00 in 752 W/m2
16:05 66.6 °F 55.7 °F 30.00 in NNE 9.0 mph 16.0 mph 68 % 0.00 in 680 W/m2
16:10 66.4 °F 55.9 °F 30.01 in NNE 9.0 mph 16.0 mph 69 % 0.00 in 701 W/m2
16:15 66.6 °F 56.5 °F 30.01 in North 8.0 mph 14.0 mph 70 % 0.00 in 773 W/m2
16:20 66.6 °F 56.1 °F 30.01 in NNE 8.0 mph 14.0 mph 69 % 0.00 in 705 W/m2
16:25 66.6 °F 55.7 °F 30.01 in NNE 7.0 mph 14.0 mph 68 % 0.00 in 343 W/m2
16:30 66.4 °F 55.9 °F 30.01 in NNE 7.0 mph 14.0 mph 69 % 0.00 in 283 W/m2
16:35 66.2 °F 55.7 °F 30.01 in NNE 7.0 mph 13.0 mph 69 % 0.00 in 308 W/m2
16:40 66.4 °F 55.9 °F 30.01 in North 7.0 mph 14.0 mph 69 % 0.00 in 703 W/m2
16:45 66.4 °F 55.9 °F 30.01 in NNE 8.0 mph 15.0 mph 69 % 0.00 in 598 W/m2
16:50 66.7 °F 56.2 °F 30.01 in NNE 6.0 mph 15.0 mph 69 % 0.00 in 853 W/m2
16:55 67.5 °F 56.9 °F 30.01 in North 5.0 mph 15.0 mph 69 % 0.00 in 821 W/m2
17:00 67.3 °F 56.4 °F 30.01 in North 7.0 mph 14.0 mph 68 % 0.00 in 276 W/m2
17:05 66.4 °F 55.5 °F 30.01 in NNE 8.0 mph 16.0 mph 68 % 0.00 in 255 W/m2
17:10 65.8 °F 55.8 °F 30.01 in NNE 7.0 mph 16.0 mph 70 % 0.00 in 207 W/m2
17:15 65.3 °F 55.7 °F 30.01 in NNE 7.0 mph 14.0 mph 71 % 0.00 in 190 W/m2
17:20 64.8 °F 55.1 °F 30.01 in NNE 8.0 mph 15.0 mph 71 % 0.00 in 234 W/m2
17:25 64.6 °F 55.3 °F 30.02 in NNE 8.0 mph 15.0 mph 72 % 0.00 in 243 W/m2
17:30 64.4 °F 55.2 °F 30.02 in North 8.0 mph 14.0 mph 72 % 0.00 in 183 W/m2
17:35 64.0 °F 54.8 °F 30.01 in North 10.0 mph 15.0 mph 72 % 0.00 in 353 W/m2
17:40 64.0 °F 55.2 °F 30.02 in North 10.0 mph 15.0 mph 73 % 0.00 in 424 W/m2
17:45 64.0 °F 54.8 °F 30.02 in NNE 9.0 mph 18.0 mph 72 % 0.00 in 146 W/m2
17:50 63.9 °F 55.0 °F 30.02 in NNE 9.0 mph 18.0 mph 73 % 0.00 in 316 W/m2
17:55 63.3 °F 54.5 °F 30.02 in NNE 8.0 mph 18.0 mph 73 % 0.00 in 88 W/m2
17:58 63.1 °F 54.7 °F 30.02 in NNE 9.0 mph 18.0 mph 74 % 0.00 in 162 W/m2
18:03 62.8 °F 54.7 °F 30.02 in NNE 7.0 mph 16.0 mph 75 % 0.00 in 118 W/m2
18:08 62.6 °F 54.2 °F 30.02 in NNE 7.0 mph 14.0 mph 74 % 0.00 in 120 W/m2
18:12 62.6 °F 54.6 °F 30.02 in NNE 8.0 mph 14.0 mph 75 % 0.00 in 216 W/m2
18:17 62.8 °F 54.7 °F 30.02 in North 6.0 mph 13.0 mph 75 % 0.00 in 190 W/m2
18:22 63.0 °F 54.9 °F 30.02 in North 6.0 mph 14.0 mph 75 % 0.00 in 163 W/m2
18:27 62.8 °F 54.7 °F 30.02 in North 7.0 mph 14.0 mph 75 % 0.00 in 121 W/m2
18:32 62.6 °F 54.6 °F 30.02 in North 7.0 mph 15.0 mph 75 % 0.00 in 160 W/m2
18:37 62.8 °F 54.7 °F 30.02 in North 7.0 mph 15.0 mph 75 % 0.00 in 172 W/m2
18:42 63.1 °F 55.1 °F 30.02 in NNW 7.0 mph 13.0 mph 75 % 0.00 in 130 W/m2
18:47 63.5 °F 55.1 °F 30.02 in NW 6.0 mph 12.0 mph 74 % 0.00 in 118 W/m2
18:57 63.7 °F 54.5 °F 30.02 in NNW 7.0 mph 13.0 mph 72 % 0.00 in 56 W/m2
19:02 63.5 °F 54.3 °F 30.02 in NW 7.0 mph 13.0 mph 72 % 0.00 in 62 W/m2
19:07 63.3 °F 54.1 °F 30.02 in NNW 6.0 mph 12.0 mph 72 % 0.00 in 56 W/m2
19:09 63.3 °F 54.5 °F 30.03 in NNW 7.0 mph 15.0 mph 73 % 0.00 in 58 W/m2
19:14 63.1 °F 54.3 °F 30.03 in NNW 8.0 mph 15.0 mph 73 % 0.00 in 47 W/m2
19:19 63.0 °F 54.5 °F 30.03 in NNW 7.0 mph 14.0 mph 74 % 0.00 in 44 W/m2
19:24 62.8 °F 54.4 °F 30.03 in North 5.0 mph 10.0 mph 74 % 0.00 in 42 W/m2
19:29 62.6 °F 54.2 °F 30.03 in NNE 5.0 mph 10.0 mph 74 % 0.00 in 46 W/m2
19:34 62.4 °F 54.4 °F 30.03 in NNE 5.0 mph 10.0 mph 75 % 0.00 in 132 W/m2
19:39 62.4 °F 54.0 °F 30.03 in North 5.0 mph 11.0 mph 74 % 0.00 in 76 W/m2
19:44 62.6 °F 54.2 °F 30.03 in North 6.0 mph 12.0 mph 74 % 0.00 in 46 W/m2
19:49 62.6 °F 54.2 °F 30.03 in North 5.0 mph 12.0 mph 74 % 0.00 in 35 W/m2
19:54 62.8 °F 54.4 °F 30.03 in North 4.0 mph 9.0 mph 74 % 0.00 in 98 W/m2
19:59 62.8 °F 54.4 °F 30.03 in NNW 4.0 mph 10.0 mph 74 % 0.00 in 97 W/m2
20:04 63.0 °F 54.2 °F 30.03 in NNW 5.0 mph 13.0 mph 73 % 0.00 in 67 W/m2
20:09 62.8 °F 54.0 °F 30.03 in NNW 5.0 mph 13.0 mph 73 % 0.00 in 37 W/m2
20:14 62.8 °F 54.4 °F 30.03 in NNW 4.0 mph 8.0 mph 74 % 0.00 in 33 W/m2
20:19 62.4 °F 54.0 °F 30.03 in NNW 4.0 mph 8.0 mph 74 % 0.00 in 33 W/m2
20:24 62.2 °F 53.8 °F 30.03 in NNW 4.0 mph 10.0 mph 74 % 0.00 in 30 W/m2
20:29 62.1 °F 53.7 °F 30.03 in North 5.0 mph 10.0 mph 74 % 0.00 in 25 W/m2
20:34 61.9 °F 53.9 °F 30.04 in North 6.0 mph 10.0 mph 75 % 0.00 in 23 W/m2
20:39 61.7 °F 54.1 °F 30.03 in NNE 5.0 mph 10.0 mph 76 % 0.00 in 19 W/m2
20:44 61.3 °F 54.1 °F 30.04 in NNE 4.0 mph 8.0 mph 77 % 0.00 in 19 W/m2
20:49 61.2 °F 54.2 °F 30.04 in NNE 3.0 mph 7.0 mph 78 % 0.00 in 16 W/m2
20:54 61.0 °F 54.1 °F 30.04 in NNE 1.0 mph 6.0 mph 78 % 0.00 in 14 W/m2
20:59 60.6 °F 54.1 °F 30.04 in NNE 2.0 mph 7.0 mph 79 % 0.00 in 12 W/m2
21:04 60.4 °F 53.9 °F 30.04 in NE 3.0 mph 7.0 mph 79 % 0.00 in 9 W/m2
21:09 60.3 °F 54.1 °F 30.04 in NE 3.0 mph 6.0 mph 80 % 0.00 in 7 W/m2
21:14 60.3 °F 54.1 °F 30.04 in NNE 3.0 mph 6.0 mph 80 % 0.00 in 5 W/m2
21:19 59.9 °F 53.7 °F 30.04 in NNE 3.0 mph 6.0 mph 80 % 0.00 in 0 W/m2
21:24 59.7 °F 53.9 °F 30.05 in NNE 3.0 mph 6.0 mph 81 % 0.00 in 0 W/m2
21:29 59.5 °F 53.7 °F 30.05 in NE 2.0 mph 6.0 mph 81 % 0.00 in 0 W/m2
21:34 59.4 °F 53.9 °F 30.05 in NNE 3.0 mph 7.0 mph 82 % 0.00 in 0 W/m2
21:39 59.2 °F 53.7 °F 30.05 in NNE 4.0 mph 7.0 mph 82 % 0.00 in 0 W/m2
21:44 59.0 °F 53.8 °F 30.05 in North 4.0 mph 7.0 mph 83 % 0.00 in 0 W/m2
21:49 58.8 °F 53.7 °F 30.05 in North 3.0 mph 7.0 mph 83 % 0.00 in 0 W/m2
21:54 58.6 °F 53.5 °F 30.05 in North 2.0 mph 7.0 mph 83 % 0.00 in 0 W/m2
21:59 58.6 °F 53.5 °F 30.05 in North 1.0 mph 5.0 mph 83 % 0.00 in 0 W/m2
22:04 58.5 °F 53.6 °F 30.06 in North 1.0 mph 2.0 mph 84 % 0.00 in 0 W/m2
22:10 58.1 °F 53.3 °F 30.06 in North 1.0 mph 4.0 mph 84 % 0.00 in 0 W/m2
22:15 57.9 °F 53.1 °F 30.06 in North 2.0 mph 8.0 mph 84 % 0.00 in 0 W/m2
22:20 57.7 °F 52.9 °F 30.06 in North 2.0 mph 8.0 mph 84 % 0.00 in 0 W/m2
22:25 57.7 °F 52.9 °F 30.06 in NNW 2.0 mph 6.0 mph 84 % 0.00 in 0 W/m2
22:30 57.6 °F 52.8 °F 30.06 in NNW 3.0 mph 8.0 mph 84 % 0.00 in 0 W/m2
22:35 57.6 °F 52.8 °F 30.06 in North 4.0 mph 8.0 mph 84 % 0.00 in 0 W/m2
22:40 57.7 °F 52.9 °F 30.06 in North 4.0 mph 8.0 mph 84 % 0.00 in 0 W/m2
22:45 57.7 °F 52.6 °F 30.06 in North 4.0 mph 8.0 mph 83 % 0.00 in 0 W/m2
22:50 57.7 °F 52.6 °F 30.05 in North 4.0 mph 8.0 mph 83 % 0.00 in 0 W/m2
22:55 57.7 °F 52.6 °F 30.06 in NNE 3.0 mph 8.0 mph 83 % 0.00 in 0 W/m2
23:00 57.6 °F 52.8 °F 30.05 in NNE 2.0 mph 5.0 mph 84 % 0.00 in 0 W/m2
23:05 57.4 °F 52.6 °F 30.06 in NNE 2.0 mph 5.0 mph 84 % 0.00 in 0 W/m2
23:10 57.2 °F 52.4 °F 30.05 in NNE 2.0 mph 5.0 mph 84 % 0.00 in 0 W/m2
23:15 57.0 °F 52.6 °F 30.06 in NNE 1.0 mph 4.0 mph 85 % 0.00 in 0 W/m2
23:20 56.8 °F 52.4 °F 30.06 in NNE 1.0 mph 4.0 mph 85 % 0.00 in 0 W/m2
23:25 56.7 °F 52.2 °F 30.06 in NNE 1.0 mph 6.0 mph 85 % 0.00 in 0 W/m2
23:30 56.5 °F 52.3 °F 30.06 in NNE 2.0 mph 6.0 mph 86 % 0.00 in 0 W/m2
23:40 56.1 °F 52.0 °F 30.06 in North 2.0 mph 7.0 mph 86 % 0.00 in 0 W/m2
23:45 55.9 °F 52.1 °F 30.06 in NNW 2.0 mph 7.0 mph 87 % 0.00 in 0 W/m2
23:50 55.8 °F 52.3 °F 30.06 in North 1.0 mph 7.0 mph 88 % 0.00 in 0 W/m2
23:55 55.6 °F 52.1 °F 30.06 in North 1.0 mph 6.0 mph 88 % 0.00 in 0 W/m2
Delerius-Weather
Compliments of Weather Underground - 2.25 mb

Data updates at regular intervals.